Weather in Dolgokycha

Russia / Zabaykalsky Krai     51°04′10″N   116°25′05″E
temp.,
°C
wind,
m/s
gust,
m/s
humid.,
%
clouds,
%
prec.,
mm/h
press.,
hPa
HPBL,
m
27 february, sat
sat2700:00−15ene3391100 0.0 101038
03:00−12n2396100 1.3 1007112
06:00−13nw3695100 3.2 1008288
09:00−17nw299599 3.3 1012266
12:00−13wnw9138898 0.1 1016875
15:00−13wnw9128699 0.2 10181012
18:00−16wnw61288100 0.1 1022619
21:00−18wnw6168376 0.1 1027535
28 february, sun
sun2800:00−21nw6148673 0.0 1031382
03:00−25nw4108547 0.0 1034207
06:00−29wnw33880 0.0 103634
09:00−30w12900 0.0 103936
12:00−23w47833 0.0 1038513
15:00−21w57826 0.0 1037709
18:00−22wnw358512 0.0 1037148
21:00−27w119112 0.0 104020
1 march, mon
mon100:00−29s00910 0.0 104219
03:00−29s12890 0.0 104219
06:00−29se11850 0.0 104119
09:00−28sse22800 0.0 104121
12:00−22ssw358384 0.0 1038300
15:00−20ssw349266 0.0 1034322
18:00−21sse1195100 0.0 103220
21:00−22se1291100 0.0 103220
2 march, tue
tue200:00−24ese229387 0.0 103020
03:00−25ese229987 0.0 102920
06:00−23se119591 0.0 102620
09:00−21se119395 0.0 102525
12:00−17s238756 0.0 1022259
15:00−15ssw348838 0.0 1019316
18:00−18ssw229458 0.0 101737
21:00−22sse228941 0.0 101720
3 march, wed
wed300:00−18s2288100 0.0 101535
03:00−17s2297100 0.1 101356
06:00−18s2299100 0.2 101222
09:00−20s2210096 0.3 101223
12:00−15sw249593 0.0 1009219
15:00−12wsw139297 0.2 1009334
18:00−10wnw5983100 0.4 1010818
21:00−17nnw2274100 0.5 101321